GPS BIIR-14M

Last updated on Sun Apr 12 2026 00:02:38 GMT+0000 (Coordinated Universal Time)

1 28874U 05038A 26100.80257485 .00000008 00000+0 00000+0 0 9999 2 28874 54.9344 275.8952 0127986 295.7451 249.5813 2.00570450150487
UTC large
Height (km)
Speed (km/s)
/
Latitude / Longitude
Inclination (degrees)
Orbital Period (minutes)
Azimuth
Elevation
Range (km)
Doppler Factor

Next 0 passes for location: London (51.5072 / 0.1276)

Sorry there are no passes over London.